Regional Weather Roundup
Issued by NWS

Home | Current Version | Previous Version | Graphics & Text | Print | Product List | Glossary On
Versions: 1 2 3 4 5 6 7 8 9 10 11 12 13 14 15 16 17 18 19 20 21 22 23 24 25 26 27 28 29 30 31 32 33 34 35 36 37 38 39 40 41 42 43 44 45 46 47 48 49 50
000
ASUS43 KLSX 232307
RWRMO
WEATHER SUMMARY FOR MISSOURI
NATIONAL WEATHER SERVICE SPRINGFIELD MO
600 PM CDT THU MAR 23 2017

NOTE: "FAIR" INDICATES FEW OR NO CLOUDS BELOW 12,000 FEET WITH NO
       SIGNIFICANT WEATHER AND/OR OBSTRUCTIONS TO VISIBILITY.
       CURRENT SKY AND/OR WEATHER CONDITIONS ARE NOT AVAILABLE FOR
       CHILLICOTHE AND FARMINGTON.

MOZ001>031-035>038-043-044-053-054-240000-
...NORTHERN AND WESTERN MISSOURI...

CITY           SKY/WX    TMP DP  RH WIND       PRES   REMARKS
KANSAS CTY INT MOSUNNY   79  52  38 S21G32    29.76F
KANSAS C DTWN  SUNNY     81  51  35 S26G37    29.77F
LEE`S SUMMIT   SUNNY     79  50  36 S21G36    29.79F
ST JOSEPH      SUNNY     80  53  39 S25G32    29.74F
CHILLICOTHE      N/A     79  45  29 S12G28    29.80F
KIRKSVILLE     SUNNY     64  39  39 SE17G24   29.86F

$$
MOZ066>068-077>081-088>096-101>105-240000-
...SOUTHWEST MISSOURI...

CITY           SKY/WX    TMP DP  RH WIND       PRES   REMARKS
SPRINGFIELD    SUNNY     77  47  34 S24       29.92F
JOPLIN         SUNNY     76  46  34 S23G32    29.88F
BRANSON        MOSUNNY   75  43  31 S14G25    29.98F

$$
MOZ032>034-039>042-045>050-055>058-069>072-240000-
...CENTRAL MISSOURI...

CITY           SKY/WX    TMP DP  RH WIND       PRES   REMARKS
COLUMBIA       SUNNY     77  48  35 S24G31    29.90F
JEFFERSON CITY SUNNY     80  48  32 S15       29.90F
ROLLA          SUNNY     74  51  44 S14G26    29.95F
SEDALIA        SUNNY     78  46  32 S25G32    29.87F
WHITEMAN AFB   SUNNY     77  48  36 S25G35    29.83F
WARRENSBURG    SUNNY     77  45  31 S21G30    29.82F
OSAGE BEACH    SUNNY    N/A N/A N/A S14G24    29.93F

$$
MOZ051-052-059>065-240000-
...EAST CENTRAL MISSOURI...

CITY           SKY/WX    TMP DP  RH WIND       PRES   REMARKS
ST LOUIS INTL  MOSUNNY   61  43  51 SE20      30.03F
SPIRIT OF STL  SUNNY     65  41  41 SE13      29.99F
ST CHARLES     SUNNY     59  43  55 SE15      30.02F

$$
MOZ072>076-082>087-097>100-106>115-240000-
...SOUTH CENTRAL AND SOUTHEAST MISSOURI...

CITY           SKY/WX    TMP DP  RH WIND       PRES   REMARKS
CAPE GIRARDEAU SUNNY     65  42  43 S10       30.12F
FARMINGTON     SUNNY     67  45  45 S18       30.06F
POPLAR BLUFF   SUNNY     67  49  52 SE10      30.10F
WEST PLAINS    SUNNY     73  51  46 S10       30.04F

$$



USA.gov is the U.S. government's official web portal to all federal, state and local government web resources and services.